HASBK LHHO-LHHP

Flight info

Callsign HASBK
Flight time N/A
Altitude 3000
Route LHHO LHDC TRAFFIC PATTERN LHHO
Aircraft C172/L-SFG/C

Departure

Time 2026-04-27 18:32
Airport Hajdúszoboszló Airfield (LHHO)

Arrival

Time N/A
Airport LHHP
Time Latitude Longitude Altitude Speed Heading
2026-04-27 18:25 47.45569 21.38836 306 ft 0 kts 53°
2026-04-27 18:28 47.45570 21.38837 306 ft 0 kts 44°
2026-04-27 18:29 47.45570 21.38838 306 ft 2 kts 41°
2026-04-27 18:29 47.45606 21.38816 306 ft 10 kts 296°
2026-04-27 18:29 47.45630 21.38718 306 ft 11 kts 285°
2026-04-27 18:30 47.45660 21.38640 306 ft 0 kts 312°
2026-04-27 18:30 47.45661 21.38638 306 ft 4 kts 309°
2026-04-27 18:31 47.45717 21.38651 306 ft 11 kts 50°
2026-04-27 18:31 47.45781 21.38758 307 ft 29 kts 48°
2026-04-27 18:31 47.46009 21.39160 309 ft 73 kts 49°
2026-04-27 18:31 47.46378 21.39802 464 ft 80 kts 46°
2026-04-27 18:32 47.46744 21.40426 685 ft 80 kts 49°
2026-04-27 18:32 47.47107 21.41050 876 ft 84 kts 48°
2026-04-27 18:32 47.47358 21.41833 1094 ft 86 kts 69°
2026-04-27 18:32 47.47567 21.42694 1293 ft 90 kts 68°
2026-04-27 18:33 47.47803 21.43564 1514 ft 92 kts 68°
2026-04-27 18:33 47.48013 21.44318 1699 ft 94 kts 68°
2026-04-27 18:33 47.48066 21.44509 1727 ft 96 kts 67°
2026-04-27 18:33 47.48318 21.45449 1925 ft 97 kts 76°
2026-04-27 18:34 47.48345 21.46443 2121 ft 98 kts 103°
2026-04-27 18:34 47.48008 21.47291 2307 ft 99 kts 134°
2026-04-27 18:34 47.47532 21.48088 2430 ft 107 kts 130°
2026-04-27 18:34 47.47113 21.49039 2487 ft 116 kts 124°
2026-04-27 18:35 47.46610 21.50037 2488 ft 125 kts 128°
2026-04-27 18:35 47.46069 21.51055 2498 ft 126 kts 129°
2026-04-27 18:35 47.45522 21.52075 2400 ft 127 kts 129°
2026-04-27 18:35 47.44978 21.53090 2271 ft 124 kts 129°
2026-04-27 18:36 47.44478 21.54028 2159 ft 106 kts 127°
2026-04-27 18:36 47.44472 21.54984 1996 ft 96 kts 50°
2026-04-27 18:36 47.44921 21.55659 1845 ft 90 kts 43°
2026-04-27 18:36 47.45421 21.56254 1585 ft 97 kts 36°
2026-04-27 18:37 47.45976 21.56875 1304 ft 104 kts 37°
2026-04-27 18:37 47.46496 21.57637 982 ft 108 kts 46°
2026-04-27 18:37 47.46990 21.58439 748 ft 102 kts 47°
2026-04-27 18:37 47.47448 21.59190 599 ft 96 kts 47°
2026-04-27 18:38 47.47843 21.59825 487 ft 75 kts 46°
2026-04-27 18:38 47.48181 21.60376 387 ft 70 kts 47°
2026-04-27 18:38 47.48492 21.60878 361 ft 62 kts 42°
2026-04-27 18:38 47.48842 21.61451 431 ft 84 kts 45°
2026-04-27 18:39 47.49241 21.62098 633 ft 86 kts 45°
2026-04-27 18:39 47.49599 21.62818 852 ft 88 kts 81°
2026-04-27 18:39 47.49242 21.63435 1027 ft 94 kts 179°
2026-04-27 18:39 47.48687 21.62922 1162 ft 101 kts 227°
2026-04-27 18:40 47.48171 21.62114 1232 ft 113 kts 226°
2026-04-27 18:40 47.47614 21.61284 1209 ft 113 kts 225°
2026-04-27 18:40 47.47053 21.60466 1152 ft 113 kts 225°
2026-04-27 18:40 47.46498 21.59650 1124 ft 113 kts 225°
2026-04-27 18:41 47.45927 21.58847 1121 ft 113 kts 223°
2026-04-27 18:41 47.45359 21.58039 1116 ft 112 kts 233°
2026-04-27 18:41 47.45400 21.57037 1166 ft 108 kts 327°
2026-04-27 18:41 47.46117 21.57206 1037 ft 118 kts 25°
2026-04-27 18:42 47.46726 21.58005 846 ft 126 kts 52°
2026-04-27 18:42 47.47103 21.58633 697 ft 112 kts 46°
2026-04-27 18:42 47.47730 21.59645 516 ft 90 kts 46°
2026-04-27 18:42 47.48117 21.60272 378 ft 76 kts 47°
2026-04-27 18:43 47.48443 21.60802 368 ft 74 kts 47°
2026-04-27 18:43 47.48831 21.61436 512 ft 85 kts 46°
2026-04-27 18:43 47.49254 21.62058 725 ft 87 kts 43°
2026-04-27 18:43 47.49558 21.62791 917 ft 90 kts 92°
2026-04-27 18:44 47.49092 21.63188 1016 ft 100 kts 211°
2026-04-27 18:44 47.48613 21.62409 1165 ft 104 kts 229°
2026-04-27 18:44 47.48130 21.61597 1368 ft 104 kts 226°
2026-04-27 18:44 47.47625 21.60818 1565 ft 104 kts 226°
2026-04-27 18:45 47.47485 21.59867 1799 ft 100 kts 290°
2026-04-27 18:45 47.47813 21.58930 1949 ft 103 kts 296°
2026-04-27 18:45 47.48139 21.57979 2127 ft 104 kts 297°
2026-04-27 18:45 47.48438 21.57005 2285 ft 106 kts 284°
2026-04-27 18:46 47.48579 21.55879 2303 ft 118 kts 279°
2026-04-27 18:46 47.48704 21.54704 2266 ft 113 kts 278°
2026-04-27 18:46 47.48820 21.53566 2125 ft 113 kts 277°
2026-04-27 18:46 47.48923 21.52405 2069 ft 114 kts 277°
2026-04-27 18:47 47.49024 21.51267 2035 ft 113 kts 277°
2026-04-27 18:47 47.49128 21.50104 1974 ft 115 kts 276°
2026-04-27 18:47 47.49209 21.48918 1942 ft 118 kts 273°
2026-04-27 18:47 47.49240 21.47727 1904 ft 111 kts 270°
2026-04-27 18:48 47.49241 21.46576 1787 ft 113 kts 268°
2026-04-27 18:48 47.49204 21.45446 1779 ft 106 kts 265°
2026-04-27 18:48 47.49114 21.44374 1716 ft 104 kts 248°
2026-04-27 18:48 47.48670 21.43552 1654 ft 100 kts 227°
2026-04-27 18:49 47.48198 21.42815 1443 ft 101 kts 226°
2026-04-27 18:49 47.47706 21.42049 1178 ft 103 kts 226°
2026-04-27 18:49 47.47230 21.41264 941 ft 102 kts 229°
2026-04-27 18:49 47.46809 21.40527 653 ft 90 kts 230°
2026-04-27 18:50 47.46420 21.39860 385 ft 82 kts 230°
2026-04-27 18:50 47.46089 21.39291 312 ft 61 kts 229°
2026-04-27 18:50 47.45899 21.38961 313 ft 21 kts 229°
2026-04-27 18:50 47.45773 21.38904 311 ft 18 kts 184°
2026-04-27 18:51 47.45660 21.38884 311 ft 15 kts 207°
2026-04-27 18:51 47.45590 21.38810 311 ft 11 kts 252°
2026-04-27 18:51 47.45592 21.38778 311 ft 1 kts 330°
2026-04-27 18:51 47.45592 21.38777 311 ft 0 kts 332°